Home   Weather   Gloucester   Past weeks

Flag for USA Past Weather in Gloucester, Massachusetts, USA — Yesterday and Last 2 Weeks

Now
33 °F

Passing clouds.


Feels Like: 33 °F
Forecast: 33 / 42 °F
Wind: No wind

Location: Beverly Municipal Airport

Current Time: Dec 8, 2016 at 7:11:07 am

Latest Report: Dec 8, 2016 at 5:53 am


Visibility: 8 mi

Pressure: 29.92 "Hg

Humidity: 92%

Dew Point: 31 °F

Location of GloucesterLocation

Past Weather in Gloucester — Graph

°F

Gloucester Temperature Yesterday

Maximum temperature yesterday: 40 °F (at 1:53 pm)
Minimum temperature yesterday: 32 °F (at 8:53 pm)
Average temperature yesterday: 36 °F

High & Low Weather Summary for the Past Weeks

 TemperatureHumidityPressure
High57 °F (Nov 29, 9:53 pm)100% (Nov 24, 8:53 pm)30.35 "Hg (Nov 24, 8:53 pm)
Low25 °F (Nov 28, 11:53 pm)41% (Dec 4, 1:53 pm)29.37 "Hg (Dec 1, 4:53 am)
Average39 °F80%30.00 "Hg
* Reported Nov 23 5:53 am — Dec 8 5:53 am, Gloucester, Weather by CustomWeather, © 2016

Note: Actual official high and low records may vary slightly from our data, if they occured in-between our weather recording intervals... More about our weather records

Advertising

Gloucester Weather History for the Previous 24 Hours

Scroll right to see more
 ConditionsComfort  
Time TempWeatherWind HumidityBarometerVisibility
5:53 am
Thu, Dec 8
33 °FPassing clouds.No wind92%29.92 "Hg8 mi
4:53 am33 °FPassing clouds.3 mph96%29.93 "Hg7 mi
3:53 am32 °FIce fog.3 mph100%29.93 "Hg6 mi
2:53 am32 °FIce fog.3 mph96%29.94 "Hg6 mi
1:53 am33 °FFog.3 mph100%29.95 "Hg4 mi
12:53 am33 °FFog.No wind96%29.96 "Hg4 mi
12:00 am33 °FFog.3 mph100%29.95 "Hg3 mi
11:01 pm
Wed, Dec 7
34 °FFog.No wind97%29.96 "Hg1 mi
9:53 pm35 °FFog.No wind96%29.97 "Hg3 mi
8:53 pm32 °FFog.3 mph100%29.98 "Hg1 mi
8:03 pm35 °FFog.No wind100%29.98 "Hg2 mi
6:53 pm37 °FFog.3 mph96%29.99 "Hg3 mi
5:53 pm38 °FFog.No wind97%29.98 "Hg5 mi
4:53 pm39 °FLow clouds.5 mph96%29.98 "Hg7 mi
3:53 pm39 °FOvercast.No wind96%29.95 "Hg8 mi
2:53 pm39 °FMostly cloudy.3 mph96%29.94 "Hg10 mi
1:53 pm40 °FLow clouds.3 mph93%29.93 "Hg10 mi
12:53 pm39 °FLow clouds.No wind96%29.93 "Hg10 mi
11:53 am39 °FFog.3 mph96%29.95 "Hg5 mi
10:53 am37 °FFog.5 mph100%29.98 "Hg5 mi
9:53 am36 °FFog.3 mph100%29.98 "Hg5 mi
9:00 am35 °FFog.9 mph96%29.99 "Hg5 mi
7:53 am35 °FLight rain. Fog.7 mph96%29.97 "Hg6 mi
Weather by CustomWeather, © 2016

See weather overviewHow to use our weather pages